Change the Weather History Date:

Friday, March 14, 2014

  Actual Average Record
Temperature  
Mean Temperature 52 °F 56 °F  
Max Temperature 68 °F 68 °F 86 °F (1989)
Min Temperature 35 °F 45 °F 19 °F (1993)
Degree Days  
Heating Degree Days 13 9  
Month to date heating degree days 192 151  
Since 1 July heating degree days 2458 2143  
Cooling Degree Days 0 1  
Month to date cooling degree days 0 11  
Year to date cooling degree days 6 21  
Moisture  
Dew Point 37 °F    
Average Humidity 58    
Maximum Humidity 85    
Minimum Humidity 31    
Precipitation  
Precipitation 0.00 in 0.16 in 3.68 in (1964)
Month to date precipitation 0.86 2.27  
Year to date precipitation 7.91 12.00  
Sea Level Pressure  
Sea Level Pressure 30.17 in    
Wind  
Wind Speed 5 mph (South)    
Max Wind Speed 18 mph    
Max Gust Speed 23 mph    
Visibility 10 miles    
Events      
T = Trace of Precipitation, MM = Missing Value Source: NWS Daily Summary

Daily Weather History Graph

Daily Weather History Graph

Search for Another Location

Airport or City:

Trip Planner

Search our weather history database for the weather conditions in past years. The results will help you decide how hot, cold, wet, or windy it might be!

Date:

Astronomy

Mar. 14, 2014 Rise Set
Actual Time 7:11 AM CDT 7:07 PM CDT
Civil Twilight 6:47 AM CDT 7:32 PM CDT
Nautical Twilight 6:18 AM CDT 8:00 PM CDT
Astronomical Twilight 5:50 AM CDT 8:29 PM CDT
Moon 5:33 PM CDT (3/14) 5:46 AM CDT (3/14)
Length of Visible Light 12h 44m
Length of Day
11h 55m
Waxing Gibbous, 96% of the Moon is Illuminated
Mar 14
Waxing Gibbous
Mar 16
Full
Mar 23
Last Quarter
Mar 30
New
Apr 7
First Quarter

Hourly Weather History & Observations

Time (CDT) Temp. Windchill Dew Point Humidity Pressure Visibility Wind Dir Wind Speed Gust Speed Precip Events Conditions
12:54 AM 44.1 °F 40.8 °F 33.1 °F 65% 30.18 in 10.0 mi SE 5.8 mph - N/A   Clear
1:54 AM 42.1 °F - 33.1 °F 70% 30.18 in 10.0 mi Calm Calm - N/A   Clear
2:54 AM 39.0 °F 36.8 °F 32.0 °F 76% 30.17 in 10.0 mi South 3.5 mph - N/A   Clear
3:54 AM 39.9 °F 36.7 °F 32.0 °F 73% 30.17 in 10.0 mi South 4.6 mph - N/A   Clear
4:54 AM 39.9 °F 35.1 °F 33.1 °F 77% 30.18 in 10.0 mi South 6.9 mph - N/A   Clear
5:54 AM 37.9 °F 34.4 °F 33.1 °F 83% 30.19 in 10.0 mi SSE 4.6 mph - N/A   Clear
6:54 AM 37.9 °F - 33.1 °F 83% 30.22 in 10.0 mi Calm Calm - N/A   Clear
7:54 AM 37.9 °F 34.4 °F 34.0 °F 86% 30.24 in 10.0 mi SE 4.6 mph - N/A   Clear
8:54 AM 48.0 °F - 39.0 °F 71% 30.25 in 10.0 mi South 4.6 mph - N/A   Clear
9:54 AM 55.0 °F - 42.1 °F 62% 30.24 in 10.0 mi SW 5.8 mph - N/A   Clear
10:54 AM 62.6 °F - 37.4 °F 39% 30.24 in 10.0 mi WSW 5.8 mph - N/A   Clear
11:54 AM 64.0 °F - 35.1 °F 34% 30.22 in 10.0 mi WSW 3.5 mph - N/A   Clear
12:54 PM 64.0 °F - 34.0 °F 33% 30.20 in 10.0 mi SSW 13.8 mph 21.9 mph N/A   Scattered Clouds
1:54 PM 64.9 °F - 36.0 °F 34% 30.17 in 10.0 mi South 12.7 mph - N/A   Mostly Cloudy
2:54 PM 64.9 °F - 37.0 °F 36% 30.14 in 10.0 mi South 11.5 mph - N/A   Mostly Cloudy
3:54 PM 64.0 °F - 35.1 °F 34% 30.12 in 10.0 mi SSW 15.0 mph 20.7 mph N/A   Mostly Cloudy
4:54 PM 63.0 °F - 36.0 °F 37% 30.12 in 10.0 mi SSW 6.9 mph - N/A   Overcast
5:54 PM 63.0 °F - 37.0 °F 38% 30.10 in 10.0 mi WSW 3.5 mph - N/A   Overcast
6:54 PM 59.0 °F - 43.0 °F 55% 30.11 in 10.0 mi Calm Calm - N/A   Overcast
7:54 PM 55.9 °F - 45.0 °F 67% 30.12 in 10.0 mi Calm Calm - N/A   Overcast
8:54 PM 55.9 °F - 44.1 °F 64% 30.13 in 10.0 mi Calm Calm - N/A   Overcast
9:54 PM 55.0 °F - 42.1 °F 62% 30.12 in 10.0 mi SE 4.6 mph - N/A   Mostly Cloudy
10:54 PM 54.0 °F - 41.0 °F 62% 30.11 in 10.0 mi SE 4.6 mph - N/A   Scattered Clouds
11:54 PM 52.0 °F - 43.0 °F 71% 30.10 in 10.0 mi SSE 5.8 mph - N/A   Clear